Temp
-7 -7 -7 -8 -8 -8 -8 -8 -9 -9 -9 -9 -10 -9 -9 -9 -10 -10 -10 -10 -10 -10 -10 -10 -10 -10 -10 -10 -10 -10 -10 -9 -8 -6 -6 -7 -7 -7 -7 -7 -6 -6 -6
-8 -8 -8 -8 -8 -8 -8 -8 -9 -9 -9 -9 -10 -10 -9 -9 -9 -10 -10 -10 -10 -10 -10 -10 -10 -10 -9 -10 -10 -10 -10 -10 -9 -7 -7 -7 -7 -7 -7 -7 -7 -6 -6
-9 -9 -8 -8 -8 -8 -8 -9 -9 -9 -10 -10 -10 -10 -10 -10 -9 -10 -10 -10 -9 -10 -10 -9 -10 -10 -10 -9 -10 -9 -10 -10 -10 -10 -11 -9 -8 -7 -7 -6 -6 -6 -6
-9 -9 -9 -9 -9 -8 -8 -9 -10 -11 -11 -11 -11 -11 -10 -10 -10 -9 -9 -10 -10 -9 -9 -9 -9 -10 -10 -10 -9 -9 -10 -9 -9 -10 -9 -9 -8 -8 -7 -7 -6 -6 -6
-9 -9 -9 -9 -9 -9 -9 -10 -11 -11 -12 -11 -11 -11 -11 -10 -10 -10 -10 -9 -10 -10 -9 -9 -8 -9 -9 -10 -9 -9 -9 -9 -10 -10 -8 -9 -8 -8 -8 -7 -7 -6 -6
-9 -9 -10 -10 -10 -10 -11 -11 -11 -11 -12 -11 -11 -11 -11 -11 -11 -10 -10 -10 -9 -10 -9 -9 -9 -9 -8 -9 -9 -9 -9 -9 -9 -9 -9 -9 -8 -8 -8 -7 -6 -7 -6
-10 -11 -11 -11 -11 -12 -12 -12 -12 -12 -12 -12 -11 -12 -11 -11 -11 -10 -10 -9 -10 -9 -10 -9 -10 -9 -8 -9 -9 -9 -8 -9 -8 -9 -9 -9 -8 -8 -7 -7 -7 -7 -6
-11 -11 -11 -11 -12 -12 -12 -12 -12 -12 -12 -12 -12 -11 -11 -11 -11 -10 -10 -9 -9 -9 -9 -8 -8 -8 -8 -8 -8 -9 -8 -8 -8 -9 -8 -8 -8 -8 -8 -7 -7 -6 -6
-11 -12 -12 -12 -13 -13 -12 -12 -12 -11 -11 -11 -11 -11 -11 -11 -11 -10 -10 -10 -9 -9 -9 -9 -8 -7 -7 -8 -8 -8 -8 -8 -8 -8 -8 -8 -8 -8 -8 -7 -6 -6 -6
-12 -12 -13 -13 -13 -13 -13 -12 -12 -11 -11 -11 -11 -12 -11 -11 -11 -10 -10 -9 -9 -8 -9 -8 -7 -7 -7 -7 -7 -6 -5 -8 -8 -8 -8 -8 -8 -8 -7 -7 -6 -6 -6
-12 -13 -13 -13 -13 -13 -13 -12 -12 -11 -11 -11 -11 -11 -11 -11 -11 -11 -10 -9 -9 -9 -8 -8 -7 -7 -7 -7 -7 -5 -6 -6 -8 -8 -8 -8 -8 -8 -7 -7 -7 -7 -6
-12 -13 -13 -13 -13 -12 -12 -12 -12 -11 -11 -11 -11 -11 -11 -11 -10 -10 -10 -10 -9 -9 -9 -8 -8 -8 -7 -6 -7 -6 -8 -7 -7 -8 -8 -8 -8 -8 -7 -7 -7 -6 -6
-13 -13 -14 -13 -13 -13 -12 -12 -12 -11 -11 -11 -11 -11 -11 -10 -10 -10 -10 -10 -9 -9 -9 -9 -9 -9 -8 -7 -7 -8 -7 -8 -8 -9 -9 -8 -8 -7 -7 -8 -7 -6 -5
-13 -13 -14 -13 -13 -12 -11 -12 -11 -11 -11 -11 -11 -11 -11 -11 -10 -10 -9 -9 -9 -10 -10 -10 -9 -9 -9 -8 -8 -9 -9 -9 -9 -9 -9 -8 -8 -8 -7 -7 -7 -6 -6
-13 -13 -13 -13 -13 -12 -12 -11 -12 -11 -11 -11 -12 -12 -12 -11 -10 -9 -9 -9 -9 -10 -10 -10 -10 -10 -9 -9 -10 -10 -9 -9 -9 -9 -9 -8 -8 -8 -7 -7 -7 -7 -6
-14 -13 -13 -13 -13 -12 -12 -12 -12 -12 -12 -12 -12 -12 -12 -12 -12 -11 -10 -9 -10 -9 -10 -10 -11 -11 -10 -10 -10 -10 -9 -9 -9 -9 -8 -8 -8 -8 -8 -8 -8 -8 -8
-14 -13 -13 -13 -12 -12 -12 -12 -12 -12 -12 -12 -12 -12 -12 -12 -12 -12 -11 -10 -10 -9 -10 -10 -11 -11 -11 -10 -10 -10 -9 -9 -9 -9 -8 -8 -8 -8 -8 -8 -7 -8 -8
-14 -13 -13 -12 -12 -12 -12 -13 -12 -12 -12 -12 -12 -12 -12 -12 -11 -12 -12 -12 -10 -11 -10 -10 -10 -11 -10 -10 -10 -10 -10 -9 -9 -8 -8 -8 -8 -8 -8 -8 -8 -8 -8
-14 -13 -13 -13 -13 -12 -12 -12 -12 -12 -12 -12 -12 -12 -12 -12 -12 -12 -12 -12 -12 -12 -11 -11 -11 -11 -11 -10 -10 -10 -10 -10 -9 -9 -9 -9 -9 -9 -9 -9 -8 -8 -9
-13 -13 -13 -14 -13 -13 -12 -13 -13 -13 -13 -12 -12 -12 -12 -12 -12 -12 -12 -12 -12 -12 -12 -12 -12 -11 -12 -11 -10 -10 -10 -10 -10 -10 -10 -9 -9 -9 -9 -9 -9 -9 -9
-14 -14 -13 -13 -13 -13 -13 -14 -13 -14 -13 -13 -13 -12 -12 -12 -12 -12 -12 -12 -12 -12 -12 -12 -12 -11 -11 -11 -11 -11 -11 -11 -11 -11 -11 -11 -11 -10 -10 -10 -10 -10 -10
-14 -14 -14 -14 -14 -14 -14 -14 -13 -13 -13 -13 -13 -13 -13 -12 -13 -13 -13 -13 -13 -12 -12 -12 -12 -11 -11 -11 -11 -11 -11 -11 -11 -11 -11 -11 -11 -11 -11 -10 -10 -10 -10
-14 -14 -14 -14 -14 -15 -15 -15 -14 -13 -13 -13 -13 -13 -13 -13 -13 -13 -13 -13 -13 -13 -13 -12 -12 -12 -12 -12 -12 -11 -11 -11 -11 -11 -11 -11 -11 -11 -11 -10 -10 -11 -11
-14 -14 -14 -14 -14 -15 -15 -15 -15 -14 -14 -14 -13 -13 -13 -13 -13 -13 -13 -13 -13 -13 -13 -13 -12 -12 -12 -12 -12 -12 -12 -12 -12 -12 -11 -11 -11 -11 -11 -11 -11 -11 -11
-14 -14 -14 -14 -15 -15 -15 -15 -15 -15 -14 -14 -14 -14 -13 -13 -13 -13 -13 -13 -13 -13 -13 -13 -13 -13 -13 -13 -13 -13 -13 -13 -12 -12 -12 -12 -12 -12 -12 -12 -12 -12 -12
-14 -15 -15 -15 -15 -15 -15 -15 -15 -14 -14 -14 -13 -14 -13 -14 -13 -13 -14 -14 -14 -13 -13 -13 -13 -14 -14 -14 -14 -14 -14 -13 -13 -13 -13 -13 -12 -12 -12 -12 -12 -12 -12
Height
5866 5863 5860 5856 5851 5847 5844 5841 5840 5838 5838 5838 5839 5841 5842 5844 5846 5850 5852 5856 5860 5863 5866 5869 5872 5874 5875 5874 5874 5872 5868 5864 5865 5867 5869 5872 5873 5875 5877 5878 5880 5881 5882
5852 5849 5846 5843 5841 5837 5832 5829 5826 5825 5823 5823 5824 5826 5827 5828 5830 5835 5839 5843 5849 5853 5857 5859 5865 5865 5868 5867 5867 5867 5865 5861 5857 5860 5864 5866 5870 5871 5873 5875 5877 5877 5878
5840 5835 5831 5828 5826 5823 5819 5815 5812 5810 5809 5808 5808 5810 5812 5812 5815 5820 5825 5830 5834 5841 5845 5850 5854 5857 5862 5862 5859 5859 5860 5859 5857 5855 5859 5863 5866 5868 5870 5871 5873 5874 5874
5829 5824 5819 5814 5811 5807 5804 5800 5797 5795 5794 5794 5793 5793 5795 5798 5802 5807 5813 5816 5823 5827 5832 5838 5842 5845 5849 5854 5856 5850 5849 5852 5856 5854 5854 5856 5858 5863 5865 5866 5867 5867 5866
5815 5809 5804 5799 5795 5792 5788 5785 5782 5781 5780 5779 5778 5778 5780 5784 5788 5792 5798 5802 5807 5813 5814 5822 5823 5831 5836 5839 5847 5847 5841 5843 5848 5851 5851 5851 5852 5856 5859 5860 5860 5860 5860
5799 5794 5788 5784 5780 5776 5772 5771 5769 5768 5765 5765 5765 5765 5766 5771 5775 5779 5783 5787 5796 5802 5806 5810 5817 5820 5823 5825 5835 5838 5840 5834 5839 5844 5845 5846 5847 5849 5851 5854 5855 5854 5854
5785 5779 5773 5769 5765 5762 5759 5757 5755 5753 5752 5751 5751 5752 5754 5759 5763 5767 5769 5774 5783 5790 5794 5799 5801 5807 5810 5814 5818 5825 5829 5830 5830 5835 5839 5839 5841 5843 5845 5846 5848 5849 5848
5770 5765 5760 5755 5751 5748 5747 5745 5743 5741 5740 5739 5738 5739 5742 5746 5750 5753 5757 5763 5769 5775 5781 5785 5787 5792 5794 5801 5804 5811 5815 5818 5820 5825 5831 5833 5837 5838 5840 5840 5841 5842 5841
5755 5750 5746 5742 5738 5736 5735 5733 5731 5728 5727 5725 5726 5727 5729 5733 5737 5741 5745 5751 5757 5764 5769 5771 5773 5777 5778 5784 5787 5793 5799 5806 5809 5814 5821 5826 5827 5829 5830 5831 5831 5833 5834
5742 5737 5733 5730 5726 5724 5723 5721 5719 5715 5713 5713 5715 5715 5717 5722 5725 5730 5733 5738 5746 5752 5756 5756 5761 5768 5767 5769 5775 5767 5769 5796 5799 5804 5808 5813 5816 5819 5821 5822 5822 5823 5825
5731 5726 5722 5717 5714 5713 5713 5711 5708 5706 5704 5703 5704 5707 5711 5714 5716 5719 5722 5727 5733 5738 5743 5744 5727 5745 5755 5761 5772 5777 5768 5752 5783 5791 5798 5803 5806 5807 5809 5812 5812 5813 5814
5719 5716 5713 5707 5704 5704 5703 5701 5699 5699 5700 5699 5700 5702 5705 5708 5710 5711 5714 5720 5724 5728 5731 5733 5732 5737 5727 5742 5751 5744 5751 5763 5772 5778 5786 5793 5797 5799 5799 5799 5801 5802 5803
5708 5706 5702 5699 5697 5695 5694 5693 5692 5693 5694 5693 5694 5696 5698 5701 5703 5705 5708 5711 5714 5719 5721 5725 5726 5726 5730 5723 5707 5742 5751 5757 5762 5768 5776 5783 5786 5787 5789 5790 5792 5793 5793
5698 5696 5693 5691 5688 5686 5686 5684 5685 5687 5688 5688 5690 5691 5691 5691 5694 5695 5698 5701 5704 5705 5708 5713 5716 5719 5725 5729 5730 5738 5744 5751 5756 5760 5767 5771 5774 5777 5779 5779 5779 5780 5781
5688 5686 5684 5682 5680 5679 5679 5679 5680 5682 5683 5684 5685 5686 5685 5684 5683 5686 5689 5694 5697 5697 5699 5703 5708 5712 5717 5723 5727 5734 5739 5744 5748 5752 5756 5760 5763 5766 5767 5768 5768 5768 5769
5680 5677 5675 5674 5671 5673 5674 5674 5676 5677 5679 5680 5680 5681 5682 5681 5681 5680 5684 5686 5691 5687 5690 5694 5698 5703 5710 5715 5720 5725 5729 5734 5738 5742 5746 5749 5752 5754 5755 5757 5757 5757 5757
5672 5669 5667 5664 5664 5667 5669 5671 5672 5674 5676 5677 5678 5678 5678 5679 5679 5679 5678 5680 5684 5684 5686 5688 5691 5695 5700 5705 5710 5715 5719 5723 5727 5732 5736 5738 5741 5742 5743 5745 5746 5746 5746
5665 5664 5659 5656 5658 5661 5664 5665 5668 5670 5670 5673 5673 5673 5674 5675 5676 5677 5676 5674 5676 5678 5680 5682 5683 5686 5691 5696 5700 5705 5709 5713 5717 5721 5724 5726 5728 5730 5733 5734 5735 5735 5736
5660 5658 5657 5655 5655 5657 5659 5663 5663 5664 5666 5668 5669 5670 5671 5671 5672 5672 5673 5672 5674 5675 5674 5675 5677 5680 5683 5688 5692 5696 5699 5702 5705 5708 5711 5714 5717 5719 5722 5724 5726 5726 5728
5655 5655 5654 5653 5652 5652 5655 5657 5658 5659 5660 5664 5666 5667 5667 5668 5669 5670 5670 5672 5672 5671 5671 5673 5675 5676 5678 5680 5683 5687 5689 5692 5694 5697 5700 5703 5706 5709 5712 5713 5715 5717 5719
5652 5651 5650 5650 5650 5649 5651 5652 5653 5655 5655 5658 5660 5663 5663 5664 5664 5666 5666 5666 5667 5669 5671 5672 5672 5673 5675 5677 5679 5680 5682 5684 5686 5688 5690 5693 5695 5698 5701 5703 5706 5708 5710
5647 5647 5647 5646 5646 5647 5647 5649 5651 5651 5652 5653 5655 5657 5657 5658 5660 5661 5662 5663 5664 5664 5665 5667 5669 5671 5673 5673 5674 5676 5677 5679 5680 5682 5682 5684 5686 5690 5693 5695 5697 5699 5702
5646 5645 5644 5644 5644 5644 5645 5646 5647 5648 5647 5648 5651 5651 5651 5653 5655 5657 5658 5659 5659 5660 5662 5664 5664 5664 5665 5667 5668 5670 5671 5673 5674 5675 5676 5678 5680 5682 5685 5687 5689 5691 5694
5643 5642 5642 5641 5640 5640 5641 5642 5644 5644 5644 5645 5646 5647 5648 5650 5651 5652 5652 5653 5654 5655 5656 5657 5658 5659 5659 5661 5662 5663 5664 5665 5667 5668 5670 5671 5673 5674 5677 5679 5682 5685 5687
5638 5637 5637 5637 5636 5635 5636 5637 5637 5639 5640 5642 5642 5642 5643 5644 5647 5648 5648 5648 5647 5649 5650 5651 5653 5654 5654 5654 5655 5656 5657 5658 5658 5659 5661 5663 5665 5667 5669 5671 5673 5675 5677
5631 5630 5631 5630 5630 5630 5632 5634 5634 5635 5635 5635 5635 5636 5637 5638 5639 5641 5640 5639 5641 5643 5644 5645 5645 5645 5647 5648 5649 5649 5650 5651 5651 5651 5653 5655 5656 5658 5659 5661 5663 5664 5666
Wind_Speed
37 39 39 42 46 50 51 52 51 52 50 48 41 40 44 48 50 44 41 47 42 37 34 31 30 28 24 19 13 11 9 6 14 13 16 19 16 15 13 15 17 16 14
41 42 43 44 44 46 50 51 52 52 50 47 43 42 44 49 50 51 43 49 48 44 41 39 36 35 31 26 17 13 8 5 1 15 19 14 13 14 12 13 12 15 15
43 46 48 47 46 47 50 51 51 51 48 45 45 43 48 51 50 49 50 53 53 50 47 44 42 40 35 31 24 18 15 11 5 11 8 8 8 10 11 11 13 14 15
44 47 49 50 50 50 51 52 47 46 46 45 44 45 49 53 53 49 54 57 58 52 53 52 50 47 42 36 32 25 23 14 12 9 11 12 12 12 12 12 14 15 15
46 47 49 51 52 51 50 48 44 42 44 44 44 46 48 52 53 51 50 60 61 55 56 59 64 56 50 43 39 32 28 20 18 17 14 14 13 14 15 15 15 16 19
50 52 54 54 52 49 45 42 41 40 42 44 42 44 45 47 48 51 51 56 63 59 61 66 64 58 54 47 45 37 33 28 23 23 20 17 17 16 18 20 20 18 21
55 55 54 52 47 44 41 40 39 40 41 42 44 44 42 43 46 48 51 52 56 55 54 57 53 64 58 57 49 43 38 31 28 27 23 25 24 20 21 22 23 23 23
55 52 48 43 41 41 40 39 39 40 42 42 42 45 43 43 45 47 49 49 50 52 52 45 50 57 65 60 54 50 40 33 30 28 29 30 29 26 24 25 26 27 29
50 46 40 39 37 38 37 38 40 41 44 42 39 39 43 41 45 45 45 44 46 44 43 44 49 49 50 63 65 57 42 35 33 32 31 29 29 23 27 24 27 27 31
43 40 38 38 37 34 35 37 36 42 37 39 37 36 31 37 41 41 41 40 38 41 38 40 38 39 45 38 43 23 39 38 36 33 33 34 31 27 27 29 31 30 28
40 39 41 37 37 31 32 33 33 22 22 22 30 33 30 32 34 36 41 41 38 38 37 38 38 33 49 53 43 49 45 39 36 35 34 33 33 29 26 24 24 29 31
38 37 35 37 29 29 30 31 24 18 19 23 20 23 26 27 27 28 35 36 36 37 37 40 39 36 41 37 52 35 26 29 30 30 29 30 32 32 32 28 27 33 36
33 29 27 25 26 30 31 27 25 17 19 20 21 25 20 22 25 29 30 31 31 36 40 44 44 42 33 31 21 34 31 29 33 29 30 32 32 35 34 31 33 36 37
31 27 26 28 26 29 27 23 21 21 22 20 23 25 28 26 23 28 30 28 34 42 43 43 43 44 38 34 34 27 31 34 32 31 32 34 33 34 35 34 33 36 37
30 31 31 30 28 22 19 14 15 16 17 19 23 20 13 17 22 23 31 30 31 27 35 36 45 44 42 38 35 36 39 40 39 37 36 37 36 34 36 36 38 39 38
31 33 31 28 22 20 16 15 18 17 15 15 14 11 9 9 12 14 20 24 21 21 25 33 38 43 42 41 43 42 43 42 41 41 39 38 37 37 38 39 38 37 33
28 29 27 27 19 20 15 17 16 16 15 14 10 12 13 14 12 9 5 24 25 24 20 25 34 38 41 41 43 44 45 44 42 41 39 38 40 41 41 39 35 37 39
24 23 18 11 17 23 14 17 20 19 20 17 15 15 15 13 12 8 7 7 19 27 26 24 27 35 38 41 43 44 43 42 40 38 38 39 39 39 37 29 26 26 27
18 18 13 6 11 22 22 16 19 22 23 23 19 16 15 15 14 10 7 7 8 8 13 21 28 27 26 27 35 39 42 40 39 40 40 37 37 30 27 30 32 31 30
16 13 12 11 13 16 20 17 19 17 21 22 23 17 16 17 16 13 12 14 14 13 10 10 12 13 16 21 26 30 32 33 34 36 35 34 31 31 33 32 33 31 29
14 14 14 13 11 13 13 17 18 20 24 20 24 21 18 18 18 15 14 15 17 18 17 17 16 15 15 16 18 21 24 25 27 28 28 28 29 31 32 31 32 30 28
11 13 11 14 13 12 13 18 18 21 24 23 24 24 23 20 17 17 16 16 17 17 16 18 19 19 20 18 18 19 19 20 21 23 25 27 28 29 30 31 31 30 30
14 13 17 15 13 14 10 12 16 20 18 19 19 20 25 22 21 19 18 19 18 18 17 17 18 19 20 20 21 22 23 24 24 26 27 27 29 31 31 32 33 33 33
12 13 12 16 18 16 16 15 14 14 16 18 20 20 21 19 19 19 19 20 20 19 18 19 20 21 22 22 22 22 23 24 26 28 29 29 30 31 32 33 35 35 35
20 21 18 17 15 11 18 14 17 17 17 15 14 18 19 18 17 19 19 20 22 22 21 20 20 22 24 24 24 23 24 26 28 29 30 31 32 33 34 35 36 36 37
18 17 18 16 19 17 15 17 18 21 20 20 17 18 17 18 19 17 17 19 21 23 20 21 22 24 24 24 24 24 25 27 29 30 30 30 30 31 32 34 36 39 39
Wind_Direction
287 286 284 282 282 281 280 279 280 279 278 275 267 253 249 241 238 237 245 228 228 225 227 227 228 230 227 226 244 260 293 293 231 235 243 237 239 237 246 259 260 262 265
292 290 287 286 285 283 282 281 279 278 276 274 267 253 245 246 241 233 232 224 228 225 226 225 227 229 227 224 224 234 269 296 316 203 207 197 217 235 247 254 260 258 258
289 289 289 289 288 284 283 282 279 277 273 269 265 253 244 244 245 237 228 225 230 225 226 226 226 230 229 227 219 216 230 243 246 122 146 186 224 241 238 240 243 248 260
286 286 286 287 287 287 284 283 279 274 271 268 263 254 242 241 245 241 232 232 225 228 228 228 228 227 227 229 230 216 220 227 242 216 193 193 205 228 235 240 243 252 264
289 288 287 287 287 286 285 283 278 273 269 266 262 254 249 243 243 244 238 234 234 234 243 233 236 221 224 222 231 225 215 221 233 244 237 220 216 227 241 242 247 253 264
288 288 289 290 291 289 286 280 276 270 266 265 263 255 254 246 244 243 243 238 233 238 244 246 245 239 226 220 226 226 225 215 226 238 244 238 239 235 242 249 253 254 263
289 293 293 292 290 285 280 279 275 266 264 266 262 255 253 249 247 244 243 242 237 237 243 245 252 250 230 221 220 222 226 226 220 230 246 246 241 241 244 250 256 258 262
291 293 294 291 287 280 275 276 275 272 272 270 263 256 254 248 242 245 242 243 242 240 245 252 253 238 233 223 217 219 221 222 223 229 238 243 248 244 252 254 259 261 264
299 298 297 292 285 280 275 275 274 275 277 269 259 255 255 247 245 243 242 243 239 238 239 250 250 242 251 231 215 210 212 220 226 231 239 242 246 253 250 255 261 263 268
297 298 298 294 284 281 276 277 278 282 277 265 250 254 252 246 248 245 244 240 235 237 244 252 255 253 232 211 217 207 204 219 226 231 238 243 254 255 261 258 264 264 268
297 296 295 293 286 276 278 276 283 268 269 256 246 245 249 248 248 244 238 235 234 242 242 243 252 250 218 211 221 216 225 214 214 227 237 243 252 259 258 267 266 257 267
297 300 298 296 280 278 277 281 270 261 265 261 253 257 250 245 249 244 243 238 240 244 249 253 242 245 236 230 211 227 215 219 225 227 239 249 251 258 266 267 271 269 272
297 294 289 287 287 280 282 276 264 256 263 271 253 252 254 247 252 247 248 248 252 252 248 245 252 248 238 212 230 206 215 227 239 240 246 249 251 253 259 262 263 266 268
291 281 284 291 290 282 278 265 245 257 269 252 263 261 270 279 268 247 244 244 245 258 242 246 248 249 243 240 231 229 236 244 249 250 247 251 253 255 261 260 261 267 266
286 286 285 289 290 265 259 238 250 256 263 259 258 265 284 289 286 253 239 249 249 259 240 243 237 242 241 234 225 228 235 241 246 250 252 258 261 257 260 259 262 265 266
288 288 290 285 273 249 247 240 251 255 257 244 248 260 285 309 330 276 267 228 233 246 237 240 236 233 238 238 237 239 244 247 249 253 255 260 258 257 257 258 263 265 262
290 292 286 281 235 230 239 227 242 246 246 243 254 267 285 284 298 320 259 208 220 227 233 250 233 232 232 233 237 237 240 245 250 254 256 254 254 256 255 259 262 261 258
293 291 301 250 226 204 239 236 233 245 255 248 254 259 271 277 275 283 269 342 236 234 233 243 231 230 229 234 236 238 239 240 244 247 248 253 252 250 247 250 258 255 247
285 303 287 289 216 212 231 249 248 247 247 244 244 254 263 274 273 265 256 256 274 281 250 248 255 256 241 229 239 239 239 239 240 243 246 243 241 241 242 246 250 247 246
303 297 272 302 295 244 236 249 243 245 246 251 241 252 266 267 265 255 242 236 248 265 266 267 266 257 251 245 236 232 234 237 238 241 240 239 240 240 244 243 244 243 243
289 297 277 272 274 258 231 240 238 241 255 252 243 250 257 263 258 257 258 253 247 238 242 244 245 246 245 240 236 233 234 233 233 233 233 233 232 233 235 234 236 236 233
288 283 285 275 253 246 241 241 250 245 249 251 249 251 259 262 260 258 260 263 266 257 249 246 243 244 241 239 241 242 240 238 235 232 230 230 230 233 236 237 233 230 224
288 261 277 285 282 249 241 269 266 255 253 251 249 245 250 258 267 267 267 266 265 262 260 254 250 247 246 247 245 245 244 242 241 240 240 240 241 240 237 234 232 226 224
272 290 297 296 279 252 248 247 274 272 270 266 267 265 262 262 264 265 267 268 267 264 261 259 257 251 248 246 247 249 250 247 244 243 241 239 238 239 237 236 231 230 230
276 278 280 289 267 262 248 259 266 269 270 257 250 261 261 266 260 258 261 267 269 269 268 262 257 256 255 253 251 247 244 244 246 246 245 243 245 245 244 240 234 237 241
289 277 270 279 262 238 246 252 263 268 266 266 259 257 255 258 260 255 252 257 264 268 268 270 268 263 256 249 250 251 249 249 249 246 247 247 245 242 241 242 243 246 248